Regional Weather Roundup
Issued by NWS Little Rock, AR

Home | Current Version | Previous Version | Graphics & Text | Print | Product List | Glossary On
Versions: 1 2 3 4 5 6 7 8 9 10 11 12 13 14 15 16 17 18 19 20 21 22 23 24 25 26 27 28 29 30 31 32
000
ASUS44 KLZK 240905
RWRLZK

WEATHER ROUNDUP FOR ARKANSAS
NATIONAL WEATHER SERVICE LITTLE ROCK AR
400 AM CDT FRI MAR 24 2017

NOTE: "FAIR" INDICATES FEW OR NO CLOUDS BELOW 12,000 FEET WITH NO
SIGNIFICANT WEATHER AND/OR OBSTRUCTIONS TO VISIBILITY.

ARZ001-003-010-029-241000-
NORTHWEST ARKANSAS

CITY           SKY/WX    TMP DP  RH WIND       PRES   REMARKS
FAYETTEVILLE   MOCLDY    67  43  41 S12G25    29.91R
FORT SMITH     CLOUDY    71  38  29 S6        29.90F
HARRISON       CLEAR     67  45  45 S17       29.92F
BENTONVILLE    PTCLDY    66  41  39 S10       29.93R
ROGERS         PTCLDY    68  43  40 S18G25    29.92R
SILOAM SPGS    MOCLDY    68  39  34 S18G25    29.92R
HIGHFILL       PTCLDY    68  43  40 S14       29.91R
$$

ARZ004-005-016-241000-
NORTH CENTRAL ARKANSAS

CITY           SKY/WX    TMP DP  RH WIND       PRES   REMARKS
BATESVILLE     CLEAR     68  52  56 S12G18    29.99F
FLIPPIN        CLEAR     70  45  40 S8G18     29.91F
MTN HOME       CLEAR     69  46  43 SW10      29.94F
$$

ARZ040-041-241000-
WEST CENTRAL ARKANSAS

CITY           SKY/WX    TMP DP  RH WIND       PRES   REMARKS
MENA           CLOUDY    68  52  56 S6G20     29.94F
MOUNT IDA      CLOUDY    70  50  49 S10G18    29.93F
$$

ARZ009-017-025-026-028-241000-
NORTHEAST ARKANSAS

CITY           SKY/WX    TMP DP  RH WIND       PRES   REMARKS
CORNING        FAIR      66  55  68 S15       30.02S
JONESBORO      CLEAR     61  54  77 S10       30.04S
NEWPORT        CLEAR     64  55  72 S15       30.01
WALNUT RIDGE   CLEAR     63  52  67 S14       30.01S
BLYTHEVILLE    CLEAR     66  56  70 S15       30.06F
$$

ARZ022-023-033-042-044-241000-
CENTRAL ARKANSAS

CITY           SKY/WX    TMP DP  RH WIND       PRES   REMARKS
LITTLE ROCK    MOCLDY    66  55  67 S9        30.00F
N LITTLE ROCK    N/A     67  55  64 S8G16     30.01F
JACKSONVILLE   PTCLDY    67  54  64 CALM      30.00F
CONWAY           N/A     68  50  52 S12       29.98S
SEARCY         CLOUDY    66  56  70 S10       30.03S
HOT SPRINGS    PTCLDY    68  51  54 SE8       30.00F
RUSSELLVILLE   CLOUDY    67  48  50 VRB5      29.96F
CLINTON        FAIR      61  52  72 CALM      30.00S
$$

ARZ036-241000-
EAST ARKANSAS

CITY           SKY/WX    TMP DP  RH WIND       PRES   REMARKS
WEST MEMPHIS   CLEAR     67  57  70 S16       30.06F
$$

ARZ050-053-066-070-073-241000-
SOUTHWEST ARKANSAS

CITY           SKY/WX    TMP DP  RH WIND       PRES   REMARKS
ARKADELPHIA    FAIR      58  52  80 S3        30.00F
CAMDEN         CLEAR     66  54  63 SE10      30.01S
TEXARKANA      CLOUDY    64  55  72 S9        29.96F
EL DORADO      PTCLDY    65  57  75 SE13      30.02F
DE QUEEN       PTCLDY    66  53  63 SE6       29.92F
$$

ARZ056-057-069-241000-
SOUTHEAST ARKANSAS

CITY           SKY/WX    TMP DP  RH WIND       PRES   REMARKS
PINE BLUFF     PTCLDY    67  57  70 S14       30.02F
STUTTGART      CLEAR     66  50  55 S12       30.04S
MONTICELLO     PTCLDY    66  57  72 S7        30.05F

$$






USA.gov is the U.S. government's official web portal to all federal, state and local government web resources and services.